Volver al catálogo

COSMOS 1375 DEB

ActivoLEO
NORAD 16202·DEBRIS·🇷🇺 Russia

Lanzado Jun 6, 1982 desde Plesetsk Cosmodrome

Loading…

Próximos Pases (próximas 24 horas)

TLE

ActualizadoSource: Space-Track

Época: Sep 14, 2026, 12:07 UTC

1 16202U 82055D   26257.50503971  .00000184  00000-0  18056-3 0  9999
2 16202  65.8270  73.4593 0090050 300.4391  91.0350 13.98905886250334

Sigue COSMOS 1375 DEB en tiempo real con AllMySat

Download on the App Store